CW8897 Weather Reports


Display with metric or nautical units.
time (UTC)temp
F
wind
direction
speed
MPH
gust
MPH
rain 1hr
in
rain 24hr
in
rain mn
in
humidity
%
barometer
mb
20260504081514 25 85 0.0 0.0 0.00 0.00 0.00 86 1017.6
20260504050008 30 60 0.0 0.0 0.00 0.00 0.00 73 1018.9
20260504044515 31 34 0.0 0.0 0.00 0.00 0.00 70 1019.1
20260504043018 32 31 0.0 0.0 0.00 0.00 0.00 69 1019.2
20260504041522 32 31 0.0 0.0 0.00 0.00 0.00 68 1019.2
20260504040005 33 29 0.0 0.0 0.00 0.00 0.00 66 1019.3
20260504034509 34 64 0.0 0.0 0.00 0.00 0.00 65 1019.2
20260504033016 35 92 0.0 0.0 0.00 0.00 0.00 62 1019.2
20260504031518 36 92 0.0 0.0 0.00 0.00 0.00 58 1019.2
20260504030003 38 92 0.0 0.0 0.00 0.00 0.00 56 1019.1
20260504024507 39 92 0.0 0.0 0.00 0.00 0.00 52 1019.0
20260504023016 42 81 0.0 1.0 0.00 0.00 0.00 47 1018.8
20260504021516 45 70 0.0 0.0 0.00 0.00 0.00 38 1018.7
20260504020020 50 280 0.0 6.0 0.00 0.00 0.00 30 1018.8
20260504014506 51 301 3.0 9.0 0.00 0.00 0.00 29 1018.7
20260504013006 52 249 3.0 13.0 0.00 0.00 0.00 26 1018.7
20260504011519 52 290 6.0 10.0 0.00 0.00 0.00 26 1019.0
20260504010015 52 277 6.0 12.0 0.00 0.00 0.00 26 1019.0
20260504004521 54 307 7.0 12.0 0.00 0.00 0.00 24 1018.9
20260504003005 54 276 7.0 17.0 0.00 0.00 0.00 23 1019.1
20260504001509 54 233 7.0 16.0 0.00 0.00 0.00 22 1019.0
20260504000013 55 252 6.0 21.0 0.00 0.00 0.00 23 1019.0
20260503234520 54 179 8.0 23.0 0.00 0.00 0.00 22 1019.1
20260503233024 55 266 10.0 19.0 0.00 0.00 0.00 22 1019.2
20260503231513 54 233 6.0 16.0 0.00 0.00 0.00 23 1019.2
20260503230012 55 253 12.0 24.0 0.00 0.00 0.00 23 1019.6
20260503224516 55 313 6.0 18.0 0.00 0.00 0.00 25 1019.4
20260503223021 55 250 10.0 19.0 0.00 0.00 0.00 23 1019.3
20260503221524 55 289 10.0 20.0 0.00 0.00 0.00 21 1019.5
20260503220008 55 293 7.0 18.0 0.00 0.00 0.00 22 1019.7
20260503214513 55 295 9.0 17.0 0.00 0.00 0.00 23 1020.0
20260503213018 54 295 10.0 19.0 0.00 0.00 0.00 25 1020.1
20260503211502 55 214 7.0 21.0 0.00 0.00 0.00 24 1020.2
20260503210006 55 253 6.0 20.0 0.00 0.00 0.00 24 1020.1
20260503204505 54 305 8.0 20.0 0.00 0.00 0.00 23 1020.5
20260503203004 55 250 10.0 24.0 0.00 0.00 0.00 22 1020.7
20260503201509 54 281 8.0 19.0 0.00 0.00 0.00 26 1020.8
20260503200006 55 276 7.0 16.0 0.00 0.00 0.00 27 1020.8
20260503194506 55 308 7.0 21.0 0.00 0.00 0.00 26 1020.8
20260503193001 55 300 8.0 18.0 0.00 0.00 0.00 27 1020.9
20260503191505 56 324 10.0 20.0 0.00 0.00 0.00 27 1021.1
20260503190006 55 250 8.0 20.0 0.00 0.00 0.00 25 1021.0
20260503184504 54 273 7.0 18.0 0.00 0.00 0.00 28 1021.4
20260503183009 54 252 12.0 21.0 0.00 0.00 0.00 24 1021.6
20260503181506 53 270 11.0 30.0 0.00 0.00 0.00 26 1021.7
20260503180004 54 249 7.0 18.0 0.00 0.00 0.00 27 1021.7
20260503174503 53 258 10.0 23.0 0.00 0.00 0.00 28 1022.1
20260503173010 53 233 8.0 17.0 0.00 0.00 0.00 29 1022.4
20260503171509 52 303 6.0 16.0 0.00 0.00 0.00 34 1022.5